Погода в Вязовике

Россия / Орловская область     52°17′51″N   37°20′02″E
темп.,
°C
ветер,
м/с
пор.,
м/с
влажн.,
%
обл.,
%
осадки,
мм/ч
давл.,
гПа
погр.,
м
13 июня, вс
вс1300:00+14зсз229185 0.0 100819
03:00+13з22935 0.0 100822
06:00+14юз23950 0.0 1008114
09:00+19юз33794 0.0 1008598
12:00+21ююз446726 0.1 10081341
15:00+23юз466173 0.3 10081685
18:00+20ююз478471 2.6 1008430
21:00+17ю3694100 4.3 1010104
14 июня, пн
пн1400:00+15ююз3493100 0.0 101060
03:00+14ююз229222 0.0 101227
06:00+16ю22905 0.0 101385
09:00+20ююв22746 0.0 1014433
12:00+23вюв22620 0.0 10141153
15:00+24вюв226438 2.4 10151154
18:00+23сз116814 4.0 1014448
21:00+18с228088 4.2 101511
15 июня, вт
вт1500:00+17с228693 0.4 101512
03:00+16с229292 0.4 101521
06:00+17ссв239149 0.0 101487
09:00+21ссв2380100 0.1 1014382
12:00+23св2368100 1.2 10131051
15:00+23всв2369100 2.6 10121013
18:00+21в2383100 2.1 1011181
21:00+19з2286100 2.1 101111
16 июня, ср
ср1600:00+17юз118989 0.6 101011
03:00+16з229296 0.6 101013
06:00+17сз249294 0.0 1010119
09:00+21ссз337996 0.0 1011367
12:00+24ссз226886 1.4 1011886
15:00+23с567262 1.9 1011853
18:00+21ссв498579 0.4 1013518
21:00+17ссв4119429 1.6 1014274
17 июня, чт
чт1700:00+16ссв5139437 0.0 1015357
03:00+15св513956 0.0 1016392
06:00+14св513911 0.0 1018457
09:00+18св711721 0.0 1018709
12:00+20св810613 0.0 10191140
15:00+21св79610 0.0 10201277
18:00+20св610722 0.0 10201032
21:00+15ссв411860 0.0 1021240